Flag for Germany Weather past 2 weeks in Filderstadt, Baden-Württemberg, Germany

Now
40 °F

Passing clouds.


Feels Like: 40 °F
Forecast: 38 / 64 °F
Wind: 1 mph from West

Location: Stuttgart-Echterdingen

Current Time: Apr 20, 2015 at 3:35:14 AM

Latest Report: Apr 20, 2015 at 3:00 AM


Visibility: 31 mi

Pressure: 30.23 "Hg

Humidity: 65%

Dew point: 29 °F

Location of FilderstadtLocation

Historic Weather in Filderstadt — Graph

°F

Filderstadt temperature yesterday

Maximum temperature yesterday: 60 °F (at 6:00 PM)
Minimum temperature yesterday: 35 °F (at 7:00 AM)
Average temperature yesterday: 48 °F

Past Weeks' High & Low Weather Summary

 TemperatureHumidityPressure
High77 °F (Apr 15, 4:00 PM)93% (Apr 10, 7:00 AM)30.66 "Hg (Apr 10, 7:00 AM)
Low28 °F (Apr 6, 6:00 AM)17% (Apr 15, 3:00 PM)29.86 "Hg (Apr 16, 7:00 PM)
Average51 °F58%30.26 "Hg
* Reported Apr 5 2:00 AM — Apr 20 2:00 AM, Filderstadt, Weather by CustomWeather, © 2015

Note: Actual official high and low records may vary slightly from our data, if they occured in-between our weather recording intervals... More about our weather records

Advertising

Filderstadt weather history for previous 24 hours

 ConditionsComfort  
Time TempWeatherWind HumidityBarometerVisibility
2:00 AM
Mon, Apr 20
37 °FPassing clouds.2 mph69%30.24 "Hg34 mi
1:00 AM43 °FPassing clouds.1 mph53%30.21 "Hg34 mi
12:00 AM44 °FPassing clouds.1 mph51%30.19 "Hg34 mi
10:00 PM
Sun, Apr 19
51 °FPassing clouds.1 mph36%30.15 "Hg37 mi
9:00 PM51 °FPassing clouds.5 mph39%30.13 "Hg37 mi
8:00 PM56 °FPassing clouds.5 mph35%30.09 "Hg37 mi
7:00 PM59 °FPassing clouds.5 mph31%30.06 "Hg37 mi
6:00 PM60 °FPassing clouds.6 mph29%30.05 "Hg37 mi
4:00 PM59 °FScattered clouds.7 mph32%30.06 "Hg37 mi
3:00 PM58 °FPassing clouds.7 mph32%30.08 "Hg37 mi
2:00 PM57 °FPassing clouds.8 mph32%30.09 "Hg37 mi
1:00 PM54 °FPassing clouds.7 mph36%30.10 "Hg37 mi
12:00 PM53 °FPassing clouds.7 mph40%30.11 "Hg37 mi
10:00 AM48 °FPassing clouds.6 mph51%30.13 "Hg37 mi
9:00 AM44 °FPassing clouds.5 mph54%30.15 "Hg37 mi
8:00 AM39 °FPassing clouds.1 mph61%30.17 "Hg37 mi
7:00 AM35 °FPassing clouds.1 mph67%30.17 "Hg37 mi
6:00 AM36 °FClear.1 mph64%30.18 "Hg31 mi
4:00 AM35 °FClear.2 mph70%30.22 "Hg31 mi
3:00 AM36 °FClear.3 mph70%30.23 "Hg31 mi
Weather by CustomWeather, © 2015

See weather overviewHow to use our weather pages